When you browse on this site, cookies collect data to enhance your experience and personalize the content and advertising you see.
Visit our Privacy Policy to learn more. By continuing to use the site, you agree to this use of cookies and data.
  • In Austria
  • List of Countries
  • For 7 days
  • Water Temperature
  • Satellite Maps
  • Weather Map
  • News
  • Weather Widgets
  • user-avatar
    Login

    Hourly Weather Djelfa

    Today, 17 November, Saturday

    Time Temperature Precipitation Wind Pressure Humidity
    00:00 +11°C° 0 mm 1 mps 662 mmHg 68%
    01:00 +10°C° 0 mm 0 mps 662 mmHg 68%
    02:00 +10°C° 0 mm 0 mps 662 mmHg 69%
    03:00 +10°C° 0 mm 0 mps 661 mmHg 69%
    04:00 +10°C° 0 mm 0 mps 661 mmHg 70%
    05:00 +10°C° 0 mm 0 mps 661 mmHg 70%
    06:00 +9°C° 0 mm 0 mps 661 mmHg 71%
    07:00 +10°C° 0 mm 0 mps 661 mmHg 67%
    08:00 +11°C° 0 mm 0 mps 661 mmHg 64%
    09:00 +12°C° 0 mm 0 mps 661 mmHg 61%
    10:00 +13°C° 0 mm 1 mps 661 mmHg 58%
    11:00 +14°C° 0 mm 1 mps 661 mmHg 55%
    12:00 +15°C° 0 mm 2 mps 661 mmHg 52%
    13:00 +15°C° 0.1 mm 2 mps 661 mmHg 50%
    14:00 +15°C° 0.1 mm 2 mps 661 mmHg 49%
    15:00 +14°C° 0.1 mm 3 mps 660 mmHg 48%
    16:00 +14°C° 0 mm 2 mps 660 mmHg 52%
    17:00 +14°C° 0 mm 2 mps 660 mmHg 56%
    18:00 +13°C° 0 mm 2 mps 660 mmHg 60%
    19:00 +12°C° 0 mm 2 mps 660 mmHg 63%
    20:00 +12°C° 0 mm 1 mps 660 mmHg 65%
    21:00 +11°C° 0 mm 1 mps 660 mmHg 68%
    22:00 +11°C° 0 mm 1 mps 660 mmHg 70%
    23:00 +9°C° 0 mm 0 mps 660 mmHg 72%

    Tomorrow, 18 November, Sunday

    Time Temperature Precipitation Wind Pressure Humidity
    00:00 +9°C° 0 mm 0 mps 659 mmHg 74%
    01:00 +9°C° 0 mm 0 mps 659 mmHg 73%
    02:00 +10°C° 0 mm 1 mps 659 mmHg 73%
    03:00 +10°C° 0 mm 1 mps 659 mmHg 73%
    04:00 +9°C° 0 mm 1 mps 659 mmHg 73%
    05:00 +9°C° 0 mm 1 mps 658 mmHg 73%
    06:00 +8°C° 0 mm 2 mps 658 mmHg 73%
    07:00 +10°C° 0 mm 2 mps 659 mmHg 67%
    08:00 +12°C° 0 mm 2 mps 659 mmHg 61%
    09:00 +12°C° 0 mm 3 mps 660 mmHg 54%
    10:00 +13°C° 0 mm 4 mps 660 mmHg 49%
    11:00 +15°C° 0 mm 5 mps 660 mmHg 44%
    12:00 +16°C° 0 mm 6 mps 660 mmHg 38%
    13:00 +16°C° 0 mm 7 mps 659 mmHg 37%
    14:00 +16°C° 0 mm 7 mps 659 mmHg 36%
    15:00 +16°C° 0 mm 7 mps 658 mmHg 35%
    16:00 +15°C° 0 mm 6 mps 658 mmHg 37%
    17:00 +15°C° 0 mm 5 mps 658 mmHg 39%
    18:00 +14°C° 0 mm 5 mps 658 mmHg 42%
    19:00 +14°C° 0 mm 5 mps 658 mmHg 43%
    20:00 +13°C° 0 mm 6 mps 658 mmHg 44%
    21:00 +13°C° 0 mm 6 mps 658 mmHg 45%
    22:00 +13°C° 0 mm 6 mps 658 mmHg 48%
    23:00 +11°C° 0 mm 7 mps 657 mmHg 51%

    Day after tomorrow, 19 November, Monday

    Time Temperature Precipitation Wind Pressure Humidity
    00:00 +10°C° 0 mm 7 mps 657 mmHg 54%
    01:00 +10°C° 0 mm 7 mps 656 mmHg 57%
    02:00 +10°C° 0 mm 8 mps 656 mmHg 60%
    03:00 +9°C° 0 mm 8 mps 656 mmHg 64%
    04:00 +9°C° 0 mm 8 mps 655 mmHg 67%
    05:00 +9°C° 0 mm 7 mps 655 mmHg 70%
    06:00 +8°C° 0 mm 7 mps 654 mmHg 74%
    07:00 +9°C° 0 mm 8 mps 655 mmHg 70%
    08:00 +10°C° 0 mm 8 mps 655 mmHg 67%
    09:00 +10°C° 0 mm 9 mps 655 mmHg 64%
    10:00 +10°C° 0.3 mm 9 mps 654 mmHg 62%
    11:00 +11°C° 0.3 mm 9 mps 654 mmHg 61%
    12:00 +11°C° 0.3 mm 9 mps 654 mmHg 60%
    13:00 +11°C° 0.2 mm 9 mps 654 mmHg 59%
    14:00 +10°C° 0.2 mm 8 mps 653 mmHg 57%
    15:00 +10°C° 0.2 mm 7 mps 653 mmHg 56%
    16:00 +10°C° 0 mm 7 mps 653 mmHg 57%
    17:00 +9°C° 0 mm 6 mps 653 mmHg 57%
    18:00 +8°C° 0 mm 5 mps 653 mmHg 58%
    19:00 +8°C° 0 mm 6 mps 654 mmHg 60%
    20:00 +8°C° 0 mm 6 mps 654 mmHg 62%
    21:00 +7°C° 0 mm 6 mps 654 mmHg 64%
    22:00 +6°C° 0 mm 7 mps 654 mmHg 67%
    23:00 +6°C° 0 mm 8 mps 654 mmHg 70%

    20 November, Tuesday

    Time Temperature Precipitation Wind Pressure Humidity
    00:00 +5°C° 0 mm 9 mps 654 mmHg 73%
    01:00 +5°C° 0 mm 9 mps 654 mmHg 72%
    02:00 +5°C° 0 mm 10 mps 654 mmHg 72%
    03:00 +4°C° 0 mm 11 mps 654 mmHg 71%
    04:00 +4°C° 0 mm 11 mps 655 mmHg 71%
    05:00 +4°C° 0 mm 11 mps 655 mmHg 72%
    06:00 +4°C° 0 mm 12 mps 655 mmHg 72%
    07:00 +6°C° 0.1 mm 11 mps 656 mmHg 70%
    08:00 +6°C° 0.1 mm 10 mps 657 mmHg 69%
    09:00 +7°C° 0.1 mm 10 mps 658 mmHg 67%
    10:00 +8°C° 0 mm 9 mps 658 mmHg 58%
    11:00 +10°C° 0 mm 9 mps 658 mmHg 49%
    12:00 +12°C° 0 mm 8 mps 658 mmHg 39%
    13:00 +12°C° 0 mm 8 mps 658 mmHg 37%
    14:00 +12°C° 0 mm 8 mps 658 mmHg 35%
    15:00 +13°C° 0 mm 8 mps 658 mmHg 33%
    16:00 +12°C° 0 mm 7 mps 659 mmHg 36%
    17:00 +12°C° 0 mm 5 mps 659 mmHg 39%
    18:00 +12°C° 0 mm 4 mps 659 mmHg 42%
    19:00 +11°C° 0 mm 4 mps 659 mmHg 44%
    20:00 +11°C° 0 mm 4 mps 660 mmHg 46%
    21:00 +11°C° 0 mm 4 mps 660 mmHg 49%
    22:00 +10°C° 0 mm 4 mps 660 mmHg 51%
    23:00 +10°C° 0 mm 4 mps 660 mmHg 53%

    21 November, Wednesday

    Time Temperature Precipitation Wind Pressure Humidity
    00:00 +8°C° 0 mm 4 mps 660 mmHg 55%
    01:00 +8°C° 0 mm 4 mps 660 mmHg 57%
    02:00 +9°C° 0 mm 3 mps 660 mmHg 58%
    03:00 +9°C° 0 mm 3 mps 660 mmHg 60%
    04:00 +7°C° 0 mm 4 mps 660 mmHg 63%
    05:00 +7°C° 0 mm 4 mps 661 mmHg 66%
    06:00 +7°C° 0 mm 5 mps 661 mmHg 69%
    07:00 +8°C° 0 mm 6 mps 661 mmHg 64%
    08:00 +9°C° 0 mm 7 mps 662 mmHg 58%
    09:00 +10°C° 0 mm 8 mps 663 mmHg 53%
    10:00 +11°C° 0 mm 8 mps 663 mmHg 49%
    11:00 +12°C° 0 mm 8 mps 663 mmHg 45%
    12:00 +13°C° 0 mm 8 mps 663 mmHg 41%
    13:00 +14°C° 0 mm 7 mps 663 mmHg 41%
    14:00 +14°C° 0 mm 7 mps 663 mmHg 41%
    15:00 +14°C° 0 mm 7 mps 663 mmHg 40%
    16:00 +13°C° 0 mm 5 mps 663 mmHg 44%
    17:00 +12°C° 0 mm 4 mps 663 mmHg 48%
    18:00 +12°C° 0 mm 2 mps 664 mmHg 51%
    19:00 +12°C° 0 mm 2 mps 664 mmHg 52%
    20:00 +10°C° 0 mm 2 mps 664 mmHg 53%
    21:00 +11°C° 0 mm 1 mps 664 mmHg 53%
    22:00 +10°C° 0 mm 2 mps 664 mmHg 52%
    23:00 +10°C° 0 mm 2 mps 664 mmHg 51%

    22 November, Thursday

    Time Temperature Precipitation Wind Pressure Humidity
    00:00 +10°C° 0 mm 3 mps 664 mmHg 51%
    01:00 +9°C° 0 mm 3 mps 664 mmHg 51%
    02:00 +9°C° 0 mm 3 mps 664 mmHg 51%
    03:00 +9°C° 0 mm 3 mps 664 mmHg 51%
    04:00 +8°C° 0 mm 3 mps 664 mmHg 51%
    05:00 +8°C° 0 mm 2 mps 664 mmHg 52%
    06:00 +8°C° 0 mm 2 mps 664 mmHg 53%
    07:00 +9°C° 0 mm 3 mps 665 mmHg 49%
    08:00 +11°C° 0 mm 3 mps 666 mmHg 45%
    09:00 +12°C° 0 mm 3 mps 666 mmHg 41%
    10:00 +13°C° 0 mm 4 mps 666 mmHg 39%
    11:00 +14°C° 0 mm 5 mps 666 mmHg 36%
    12:00 +15°C° 0 mm 6 mps 666 mmHg 34%
    13:00 +15°C° 0 mm 6 mps 666 mmHg 34%
    14:00 +15°C° 0 mm 6 mps 666 mmHg 34%
    15:00 +15°C° 0 mm 6 mps 666 mmHg 34%
    16:00 +14°C° 0 mm 5 mps 666 mmHg 38%
    17:00 +13°C° 0 mm 5 mps 666 mmHg 41%
    18:00 +12°C° 0 mm 4 mps 666 mmHg 44%
    19:00 +11°C° 0 mm 4 mps 666 mmHg 46%
    20:00 +11°C° 0 mm 4 mps 666 mmHg 47%
    21:00 +11°C° 0 mm 3 mps 666 mmHg 48%
    22:00 +10°C° 0 mm 3 mps 666 mmHg 49%
    23:00 +10°C° 0 mm 3 mps 666 mmHg 50%
    Show more